Time,TemperatureF,DewpointF,PressureIn,WindDirection,WindDirectionDegrees,WindSpeedMPH,WindSpeedGustMPH,Humidity,HourlyPrecipIn,Conditions,Clouds,dailyrainin,SoftwareType,DateUTC
2013-07-18 08:10:00,81.3,73.8,30.00,SSW,207,1.0,1.0,78,0.00,,,0.00,Wunderground v.1.15,2013-07-18 13:10:00,
2013-07-18 08:15:00,81.4,73.9,30.00,SSW,205,1.0,3.0,78,0.00,,,0.00,Wunderground v.1.15,2013-07-18 13:15:00,
2013-07-18 08:20:00,81.7,74.2,30.00,SW,219,1.0,1.0,78,0.00,,,0.00,Wunderground v.1.15,2013-07-18 13:20:00,
2013-07-18 08:25:00,81.9,74.0,30.00,SW,225,1.0,3.0,77,0.00,,,0.00,Wunderground v.1.15,2013-07-18 13:25:00,
2013-07-18 08:35:00,82.6,74.7,29.99,WSW,249,0.0,3.0,77,0.00,,,0.00,Wunderground v.1.15,2013-07-18 13:35:00,
2013-07-18 08:40:00,83.4,74.6,29.99,SW,216,1.0,1.0,75,0.00,,,0.00,Wunderground v.1.15,2013-07-18 13:40:00,
2013-07-18 08:50:00,84.0,74.8,29.99,SW,226,1.0,1.0,74,0.00,,,0.00,Wunderground v.1.15,2013-07-18 13:50:00,
2013-07-18 08:55:00,84.2,74.6,29.99,SW,225,1.0,6.0,73,0.00,,,0.00,Wunderground v.1.15,2013-07-18 13:55:00,
2013-07-18 09:00:00,84.3,75.1,29.99,SW,214,1.0,1.0,74,0.00,,,0.00,Wunderground v.1.15,2013-07-18 14:00:00,
2013-07-18 09:15:00,85.6,75.5,29.99,SW,228,1.0,3.0,72,0.00,,,0.00,Wunderground v.1.15,2013-07-18 14:15:00,
2013-07-18 09:20:00,85.5,75.0,29.99,South,187,1.0,1.0,71,0.00,,,0.00,Wunderground v.1.15,2013-07-18 14:20:00,
2013-07-18 09:25:00,85.8,75.3,29.99,SSE,168,1.0,2.0,71,0.00,,,0.00,Wunderground v.1.15,2013-07-18 14:25:00,
2013-07-18 09:30:00,86.0,75.9,29.99,SSW,207,1.0,1.0,72,0.00,,,0.00,Wunderground v.1.15,2013-07-18 14:30:00,
2013-07-18 09:40:00,87.0,75.6,29.98,SSW,208,1.0,5.0,69,0.00,,,0.00,Wunderground v.1.15,2013-07-18 14:40:00,
2013-07-18 09:50:00,87.4,75.1,29.99,SW,223,1.0,1.0,67,0.00,,,0.00,Wunderground v.1.15,2013-07-18 14:50:00,
2013-07-18 09:55:00,87.7,75.8,29.98,SW,222,1.0,3.0,68,0.00,,,0.00,Wunderground v.1.15,2013-07-18 14:55:00,
2013-07-18 10:00:00,87.7,74.5,29.98,SW,232,1.0,1.0,65,0.00,,,0.00,Wunderground v.1.15,2013-07-18 15:00:00,
2013-07-18 10:05:00,88.7,75.4,29.98,SSW,203,1.0,1.0,65,0.00,,,0.00,Wunderground v.1.15,2013-07-18 15:05:00,
2013-07-18 10:10:00,89.4,75.6,29.98,SW,226,0.0,0.0,64,0.00,,,0.00,Wunderground v.1.15,2013-07-18 15:10:00,
2013-07-18 10:15:00,89.3,75.0,29.98,WSW,237,0.0,0.0,63,0.00,,,0.00,Wunderground v.1.15,2013-07-18 15:15:00,
2013-07-18 10:20:00,89.3,74.6,29.97,SSW,208,1.0,1.0,62,0.00,,,0.00,Wunderground v.1.15,2013-07-18 15:20:00,
2013-07-18 10:30:00,90.0,74.2,29.97,SW,219,1.0,5.0,60,0.00,,,0.00,Wunderground v.1.15,2013-07-18 15:30:00,
2013-07-18 10:40:00,90.4,74.6,29.97,SSW,207,1.0,7.0,60,0.00,,,0.00,Wunderground v.1.15,2013-07-18 15:40:00,
2013-07-18 10:45:00,90.1,73.8,29.97,SW,218,2.0,7.0,59,0.00,,,0.00,Wunderground v.1.15,2013-07-18 15:45:00,
2013-07-18 10:50:00,89.8,74.1,29.97,SW,229,2.0,2.0,60,0.00,,,0.00,Wunderground v.1.15,2013-07-18 15:50:00,
2013-07-18 11:00:00,90.8,74.5,29.96,WSW,246,1.0,7.0,59,0.00,,,0.00,Wunderground v.1.15,2013-07-18 16:00:00,
2013-07-18 11:05:00,90.3,74.0,29.96,WSW,250,1.0,7.0,59,0.00,,,0.00,Wunderground v.1.15,2013-07-18 16:05:00,
2013-07-18 11:15:00,91.0,75.2,29.96,SW,217,1.0,7.0,60,0.00,,,0.00,Wunderground v.1.15,2013-07-18 16:15:00,
2013-07-18 11:20:00,91.4,75.1,29.95,SW,235,1.0,1.0,59,0.00,,,0.00,Wunderground v.1.15,2013-07-18 16:20:00,
2013-07-18 11:25:00,91.3,75.5,29.95,SW,232,2.0,2.0,60,0.00,,,0.00,Wunderground v.1.15,2013-07-18 16:25:00,
2013-07-18 11:35:00,91.1,75.3,29.95,SSE,164,1.0,7.0,60,0.00,,,0.00,Wunderground v.1.15,2013-07-18 16:35:00,
2013-07-18 11:40:00,91.1,73.7,29.95,SSW,196,3.0,7.0,57,0.00,,,0.00,Wunderground v.1.15,2013-07-18 16:40:00,
2013-07-18 11:45:00,90.2,73.4,29.94,SW,221,5.0,7.0,58,0.00,,,0.00,Wunderground v.1.15,2013-07-18 16:45:00,
2013-07-18 11:50:00,90.3,75.0,29.94,SSW,209,4.0,4.0,61,0.00,,,0.00,Wunderground v.1.15,2013-07-18 16:50:00,
2013-07-18 12:00:00,90.5,74.2,29.94,SW,225,3.0,3.0,59,0.00,,,0.00,Wunderground v.1.15,2013-07-18 17:00:00,
2013-07-18 12:05:00,90.1,73.8,29.94,SSW,196,4.0,4.0,59,0.00,,,0.00,Wunderground v.1.15,2013-07-18 17:05:00,
2013-07-18 12:10:00,90.3,75.0,29.93,South,179,3.0,7.0,61,0.00,,,0.00,Wunderground v.1.15,2013-07-18 17:10:00,
2013-07-18 12:20:00,90.7,73.9,29.93,South,178,4.0,4.0,58,0.00,,,0.00,Wunderground v.1.15,2013-07-18 17:20:00,
2013-07-18 12:30:00,90.6,74.3,29.93,SSW,208,4.0,4.0,59,0.00,,,0.00,Wunderground v.1.15,2013-07-18 17:30:00,
2013-07-18 12:35:00,90.9,74.1,29.93,SSW,202,4.0,7.0,58,0.00,,,0.00,Wunderground v.1.15,2013-07-18 17:35:00,
2013-07-18 12:45:00,89.9,73.7,29.93,SSW,194,5.0,5.0,59,0.00,,,0.00,Wunderground v.1.15,2013-07-18 17:45:00,
2013-07-18 12:50:00,90.6,74.3,29.92,SSW,198,3.0,3.0,59,0.00,,,0.00,Wunderground v.1.15,2013-07-18 17:50:00,
2013-07-18 12:55:00,91.3,73.4,29.92,SSW,198,3.0,7.0,56,0.00,,,0.00,Wunderground v.1.15,2013-07-18 17:55:00,
2013-07-18 13:00:00,91.7,73.2,29.91,South,188,4.0,7.0,55,0.00,,,0.00,Wunderground v.1.15,2013-07-18 18:00:00,
2013-07-18 13:10:00,92.2,75.3,29.91,SW,215,4.0,4.0,58,0.00,,,0.00,Wunderground v.1.15,2013-07-18 18:10:00,
2013-07-18 13:15:00,93.0,74.4,29.91,SSW,193,4.0,5.0,55,0.00,,,0.00,Wunderground v.1.15,2013-07-18 18:15:00,
2013-07-18 13:20:00,93.2,73.5,29.91,South,189,4.0,12.0,53,0.00,,,0.00,Wunderground v.1.15,2013-07-18 18:20:00,
2013-07-18 13:25:00,92.2,72.6,29.90,SW,221,6.0,12.0,53,0.00,,,0.00,Wunderground v.1.15,2013-07-18 18:25:00,
2013-07-18 13:35:00,92.0,74.6,29.90,SSW,203,5.0,15.0,57,0.00,,,0.00,Wunderground v.1.15,2013-07-18 18:35:00,
2013-07-18 13:40:00,92.9,74.4,29.90,SSE,165,3.0,15.0,55,0.00,,,0.00,Wunderground v.1.15,2013-07-18 18:40:00,
2013-07-18 13:45:00,92.4,73.3,29.89,South,186,5.0,15.0,54,0.00,,,0.00,Wunderground v.1.15,2013-07-18 18:45:00,
2013-07-18 13:50:00,91.8,71.7,29.89,SSW,200,7.0,15.0,52,0.00,,,0.00,Wunderground v.1.15,2013-07-18 18:50:00,
2013-07-18 14:00:00,90.0,71.1,29.89,SW,236,4.0,15.0,54,0.00,,,0.00,Wunderground v.1.15,2013-07-18 19:00:00,
2013-07-18 14:05:00,89.7,72.4,29.89,SW,223,3.0,15.0,57,0.00,,,0.00,Wunderground v.1.15,2013-07-18 19:05:00,
2013-07-18 14:15:00,91.0,73.1,29.88,South,182,2.0,15.0,56,0.00,,,0.00,Wunderground v.1.15,2013-07-18 19:15:00,
2013-07-18 14:20:00,91.6,73.1,29.87,SW,216,3.0,15.0,55,0.00,,,0.00,Wunderground v.1.15,2013-07-18 19:20:00,
2013-07-18 14:25:00,91.7,73.2,29.87,SSW,204,3.0,15.0,55,0.00,,,0.00,Wunderground v.1.15,2013-07-18 19:25:00,
2013-07-18 14:30:00,92.2,74.2,29.87,SSW,205,3.0,15.0,56,0.00,,,0.00,Wunderground v.1.15,2013-07-18 19:30:00,
2013-07-18 14:40:00,92.0,72.4,29.86,SSW,198,5.0,5.0,53,0.00,,,0.00,Wunderground v.1.15,2013-07-18 19:40:00,
2013-07-18 14:45:00,90.8,71.9,29.86,SSW,205,6.0,10.0,54,0.00,,,0.00,Wunderground v.1.15,2013-07-18 19:45:00,
2013-07-18 14:55:00,91.4,71.9,29.86,SW,216,6.0,15.0,53,0.00,,,0.00,Wunderground v.1.15,2013-07-18 19:55:00,
2013-07-18 15:00:00,92.0,73.0,29.85,SSE,159,6.0,15.0,54,0.00,,,0.00,Wunderground v.1.15,2013-07-18 20:00:00,
2013-07-18 15:10:00,91.7,72.1,29.85,SW,222,6.0,15.0,53,0.00,,,0.00,Wunderground v.1.15,2013-07-18 20:10:00,
2013-07-18 15:15:00,92.3,72.1,29.85,SW,228,6.0,15.0,52,0.00,,,0.00,Wunderground v.1.15,2013-07-18 20:15:00,
2013-07-18 15:20:00,92.9,72.1,29.85,SSW,201,6.0,6.0,51,0.00,,,0.00,Wunderground v.1.15,2013-07-18 20:20:00,
2013-07-18 15:30:00,93.1,71.1,29.84,SSW,207,7.0,7.0,49,0.00,,,0.00,Wunderground v.1.15,2013-07-18 20:30:00,
2013-07-18 15:40:00,93.2,71.2,29.84,South,179,6.0,7.0,49,0.00,,,0.00,Wunderground v.1.15,2013-07-18 20:40:00,
2013-07-18 15:55:00,93.1,71.7,29.84,SSW,201,6.0,8.0,50,0.00,,,0.00,Wunderground v.1.15,2013-07-18 20:55:00,
2013-07-18 16:00:00,92.8,72.6,29.84,SSW,213,7.0,7.0,52,0.00,,,0.00,Wunderground v.1.15,2013-07-18 21:00:00,
2013-07-18 16:05:00,92.9,72.1,29.83,South,181,7.0,7.0,51,0.00,,,0.00,Wunderground v.1.15,2013-07-18 21:05:00,
2013-07-18 16:15:00,92.8,72.0,29.83,SW,215,6.0,19.0,51,0.00,,,0.00,Wunderground v.1.15,2013-07-18 21:15:00,
2013-07-18 16:20:00,92.4,71.6,29.83,SSE,159,8.0,8.0,51,0.00,,,0.00,Wunderground v.1.15,2013-07-18 21:20:00,
2013-07-18 16:25:00,92.3,71.0,29.83,South,177,8.0,11.0,50,0.00,,,0.00,Wunderground v.1.15,2013-07-18 21:25:00,
2013-07-18 16:30:00,92.0,71.3,29.83,South,178,7.0,7.0,51,0.00,,,0.00,Wunderground v.1.15,2013-07-18 21:30:00,
2013-07-18 16:35:00,92.0,71.9,29.83,SSW,209,8.0,8.0,52,0.00,,,0.00,Wunderground v.1.15,2013-07-18 21:35:00,
2013-07-18 16:45:00,91.9,72.3,29.83,South,170,4.0,21.0,53,0.00,,,0.00,Wunderground v.1.15,2013-07-18 21:45:00,
2013-07-18 16:50:00,92.3,72.1,29.83,SSE,156,4.0,21.0,52,0.00,,,0.00,Wunderground v.1.15,2013-07-18 21:50:00,
2013-07-18 16:55:00,92.3,72.1,29.82,SSW,207,6.0,21.0,52,0.00,,,0.00,Wunderground v.1.15,2013-07-18 21:55:00,
2013-07-18 17:00:00,92.4,72.2,29.82,South,190,6.0,21.0,52,0.00,,,0.00,Wunderground v.1.15,2013-07-18 22:00:00,
2013-07-18 17:05:00,91.8,72.2,29.82,South,185,6.0,21.0,53,0.00,,,0.00,Wunderground v.1.15,2013-07-18 22:05:00,
2013-07-18 17:15:00,91.4,71.9,29.82,SW,221,7.0,21.0,53,0.00,,,0.00,Wunderground v.1.15,2013-07-18 22:15:00,
2013-07-18 17:20:00,91.1,71.6,29.81,SSW,195,7.0,21.0,53,0.00,,,0.00,Wunderground v.1.15,2013-07-18 22:20:00,
2013-07-18 17:30:00,91.2,72.8,29.81,WSW,238,6.0,21.0,55,0.00,,,0.00,Wunderground v.1.15,2013-07-18 22:30:00,
2013-07-18 17:35:00,90.8,71.3,29.81,South,185,7.0,21.0,53,0.00,,,0.00,Wunderground v.1.15,2013-07-18 22:35:00,
2013-07-18 17:40:00,90.8,72.4,29.81,South,186,7.0,21.0,55,0.00,,,0.00,Wunderground v.1.15,2013-07-18 22:40:00,